Weather in Vizhnitsa

Ukraine / Chernovtci District     48°14′42″N   25°10′55″E
temp.,
°C
wind,
m/s
gust,
m/s
humid.,
%
clouds,
%
prec.,
mm/h
press.,
hPa
HPBL,
m
17 october, sun
sun1700:00+5wsw1179100 0.0 102213
03:00+4wsw118391 0.0 102310
06:00+2w11915 0.0 102310
09:00+4w118322 0.0 102371
12:00+9nne216111 0.0 1022760
15:00+11nne22559 0.0 1020903
18:00+8nne11715 0.0 102010
21:00+5sw11855 0.0 102210
18 october, mon
mon1800:00+4sw1190100 0.0 102211
03:00+3sw229160 0.0 102314
06:00+3sw2291100 0.0 102221
09:00+5sw227893 0.0 102363
12:00+11nnw1152100 0.0 1023644
15:00+12n3347100 0.0 10211239
18:00+9nnw376671 0.0 1023464
21:00+7wsw1179100 0.0 102531
19 october, tue
tue1900:00+7ssw2276100 0.0 102447
03:00+6sw2274100 0.0 102550
06:00+7nw2476100 0.1 1026174
09:00+7nw2696100 1.2 1028425
12:00+7n1296100 0.8 1029222
15:00+8n0191100 1.0 1028223
18:00+7e1194100 0.0 102812
21:00+7s1191100 0.0 102825
20 october, wed
wed2000:00+7s129074 0.0 102842
03:00+5ssw228930 0.0 102841
06:00+4ssw228899 0.0 102726
09:00+6ssw2283100 0.0 102661
12:00+14ssw125499 0.0 1024466
15:00+17nw014198 0.0 1021967
18:00+12ssw245944 0.0 1020107
21:00+9sw33728 0.0 101953
21 october, thu
thu2100:00+7sw347557 0.0 101857
03:00+8sw3368100 0.0 101753
06:00+8sw3366100 0.0 101547
09:00+11sw4752100 0.0 1014216
12:00+17sw2435100 0.0 1013959
15:00+17ssw3444100 0.0 1012708
18:00+13wsw2361100 0.0 101254
21:00+9sw337571 0.0 101346